ORBCOMM FM03 [-]

Last updated on July 6, 2021, 3:36 p.m. UTC

1 25158U 98007B   21186.93678071  .00000061  00000-0  74418-4 0  9999
2 25158 107.9965  65.6243 0049208 237.6356 122.0013 14.29704634217673
UTC
Height (km)
Latitude
Longitude
Inclination
Orbital Period
UTC large
Height (km)
Speed (km/s)
/
Latitude / Longitude
Inclination (degrees)
Orbital Period (minutes)
Azimuth
Elevation
Range (km)
Doppler Factor
iOS Compass Heading
iOS Angle